Location: Brompton
(51.4000°N, 0.5333°E)
Time: 09:36:10
(UTC+00:00)

NOSS 3-3 (A) - Pass Details

Date: 11 May 2021
Orbit: 810 x 1402 km, 63.4° (Epoch: 06 June)

Event Time Altitude Azimuth Distance (km) Brightness Sun altitude
Rises 21:20:48 0° 224° (SW) 3,416 6.8 -12.8°
Reaches altitude 10° 21:23:08 10° 224° (SW) 2,532 6.1 -13.0°
Maximum altitude 21:29:01 87° 314° (NW) 968 4.0 -13.6°
Drops below altitude 10° 21:35:50 10° 45° (NE) 2,914 6.6 -14.2°
Sets 21:38:42 0° 46° (NE) 3,967 7.3 -14.4°
